Bullhead City, AZ

5:34 AM MST on April 25, 2017 (GMT -0700)
Laughlin-Bullhead International

Weather History for KIFP - February, 2013

Change the Weather History Date:

Saturday, February 16, 2013

  Actual Average Record
Temperature  
Mean Temperature 64 °F -  
Max Temperature 73 °F 66 °F 84 °F (2014)
Min Temperature 55 °F 48 °F 27 °F (1990)
Degree Days  
Heating Degree Days 1    
Growing Degree Days 14 (Base 50)    
Moisture  
Dew Point 22 °F    
Average Humidity 22    
Maximum Humidity 31    
Minimum Humidity 13    
Precipitation  
Precipitation 0.00 in - - ()
Sea Level Pressure  
Sea Level Pressure 30.17 in    
Wind  
Wind Speed 16 mph (NNE)    
Max Wind Speed 28 mph    
Max Gust Speed 38 mph    
Visibility 10 miles    
Events      
Averages and records for this station are not official NWS values.
T = Trace of Precipitation, MM = Missing Value Source: NWS Daily Summary

Daily Weather History Graph

Daily Weather History Graph

Search for Another Location

Airport or City:

Trip Planner

Search our weather history database for the weather conditions in past years. The results will help you decide how hot, cold, wet, or windy it might be!

Date:

Astronomy

Feb. 16, 2013 Rise Set
Actual Time 7:22 AM MST 6:22 PM MST
Civil Twilight 6:57 AM MST 6:47 PM MST
Nautical Twilight 6:27 AM MST 7:17 PM MST
Astronomical Twilight 5:57 AM MST 7:47 PM MST
Moon 10:55 AM MST (2/16) 12:10 AM MST (2/16)
Length of Visible Light 11h 50m
Length of Day
10h 59m
Waxing Crescent, 40% of the Moon is Illuminated
Feb 16
Waxing Crescent
Feb 17
First Quarter
Feb 25
Full
Mar 4
Last Quarter
Mar 11
New

Hourly Weather History & Observations

Time (MST) Temp. Dew Point Humidity Pressure Visibility Wind Dir Wind Speed Gust Speed Precip Events Conditions
12:15 AM 64.4 °F 19.4 °F 18% 30.31 in 10.0 mi North 16.1 mph - N/A   Clear
12:35 AM 62.6 °F 19.4 °F 19% 30.31 in 10.0 mi NE 12.7 mph - N/A   Clear
12:55 AM 62.6 °F 19.4 °F 19% 30.31 in 10.0 mi NE 15.0 mph - N/A   Clear
1:15 AM 60.8 °F 19.4 °F 20% 30.31 in 10.0 mi NE 13.8 mph - N/A   Clear
1:35 AM 60.8 °F 19.4 °F 20% 30.31 in 10.0 mi NE 15.0 mph - N/A   Clear
1:55 AM 59.0 °F 19.4 °F 22% 30.32 in 10.0 mi NNE 13.8 mph - N/A   Clear
2:35 AM 59.0 °F 19.4 °F 22% 30.31 in 10.0 mi NNE 17.3 mph - N/A   Clear
2:55 AM 60.8 °F 19.4 °F 20% 30.31 in 10.0 mi NNE 18.4 mph - N/A   Clear
3:15 AM 59.0 °F 21.2 °F 23% 30.30 in 10.0 mi NNE 19.6 mph - N/A   Clear
3:35 AM 59.0 °F 21.2 °F 23% 30.30 in 10.0 mi North 15.0 mph - N/A   Clear
4:15 AM 57.2 °F 21.2 °F 25% 30.29 in 10.0 mi NNE 19.6 mph - N/A   Clear
4:35 AM 59.0 °F 23.0 °F 25% 30.28 in 10.0 mi NNE 19.6 mph - N/A   Clear
4:55 AM 57.2 °F 23.0 °F 27% 30.29 in 10.0 mi NNE 15.0 mph 21.9 mph N/A   Clear
5:15 AM 57.2 °F 23.0 °F 27% 30.28 in 10.0 mi NNE 16.1 mph - N/A   Clear
5:35 AM 57.2 °F 23.0 °F 27% 30.28 in 10.0 mi NNE 17.3 mph - N/A   Clear
5:55 AM 57.2 °F 23.0 °F 27% 30.28 in 10.0 mi NNE 17.3 mph 20.7 mph N/A   Clear
6:35 AM 57.2 °F 23.0 °F 27% 30.27 in 10.0 mi NNE 19.6 mph 25.3 mph N/A   Clear
6:55 AM 57.2 °F 23.0 °F 27% 30.27 in 10.0 mi NNE 24.2 mph 32.2 mph N/A   Clear
7:15 AM 57.2 °F 23.0 °F 27% 30.28 in 10.0 mi NNE 18.4 mph 26.5 mph N/A   Clear
7:35 AM 55.4 °F 23.0 °F 29% 30.29 in 10.0 mi North 19.6 mph 25.3 mph N/A   Clear
7:55 AM 55.4 °F 23.0 °F 29% 30.29 in 10.0 mi NNE 16.1 mph - N/A   Clear
8:15 AM 55.4 °F 23.0 °F 29% 30.29 in 10.0 mi NNE 19.6 mph 26.5 mph N/A   Clear
8:35 AM 55.4 °F 24.8 °F 31% 30.29 in 10.0 mi NNE 21.9 mph 27.6 mph N/A   Clear
8:55 AM 55.4 °F 24.8 °F 31% 30.30 in 10.0 mi NNE 20.7 mph 24.2 mph N/A   Clear
9:15 AM 57.2 °F 23.0 °F 27% 30.30 in 10.0 mi NNE 19.6 mph - N/A   Clear
9:35 AM 57.2 °F 24.8 °F 29% 30.29 in 10.0 mi NNE 27.6 mph 38.0 mph N/A   Clear
9:55 AM 59.0 °F 24.8 °F 27% 30.29 in 10.0 mi NNE 23.0 mph 32.2 mph N/A   Clear
10:15 AM 59.0 °F 24.8 °F 27% 30.29 in 10.0 mi NNE 18.4 mph 27.6 mph N/A   Clear
10:35 AM 60.8 °F 24.8 °F 25% 30.28 in 10.0 mi North 25.3 mph 33.4 mph N/A   Clear
10:55 AM 62.6 °F 24.8 °F 24% 30.27 in 10.0 mi North 26.5 mph 32.2 mph N/A   Clear
11:15 AM 62.6 °F 24.8 °F 24% 30.26 in 10.0 mi North 26.5 mph 32.2 mph N/A   Clear
11:35 AM 64.4 °F 23.0 °F 21% 30.26 in 10.0 mi North 26.5 mph 31.1 mph N/A   Clear
11:55 AM 64.4 °F 23.0 °F 21% 30.24 in 10.0 mi North 24.2 mph 32.2 mph N/A   Clear
12:15 PM 66.2 °F 23.0 °F 19% 30.24 in 10.0 mi North 20.7 mph 28.8 mph N/A   Clear
12:35 PM 66.2 °F 23.0 °F 19% 30.22 in 10.0 mi North 23.0 mph 27.6 mph N/A   Clear
12:55 PM 68.0 °F 23.0 °F 18% 30.20 in 10.0 mi North 24.2 mph 28.8 mph N/A   Clear
1:15 PM 68.0 °F 23.0 °F 18% 30.19 in 10.0 mi North 20.7 mph 26.5 mph N/A   Clear
1:35 PM 69.8 °F 23.0 °F 17% 30.17 in 10.0 mi North 17.3 mph - N/A   Clear
1:55 PM 69.8 °F 21.2 °F 16% 30.16 in 10.0 mi North 19.6 mph 23.0 mph N/A   Clear
2:15 PM 71.6 °F 21.2 °F 15% 30.14 in 10.0 mi NNE 18.4 mph - N/A   Clear
2:35 PM 71.6 °F 21.2 °F 15% 30.13 in 10.0 mi North 16.1 mph 23.0 mph N/A   Clear
2:55 PM 71.6 °F 21.2 °F 15% 30.12 in 10.0 mi North 16.1 mph - N/A   Clear
3:15 PM 71.6 °F 17.6 °F 13% 30.10 in 10.0 mi North 18.4 mph 24.2 mph N/A   Clear
3:35 PM 71.6 °F 19.4 °F 14% 30.09 in 10.0 mi North 16.1 mph - N/A   Clear
3:55 PM 71.6 °F 19.4 °F 14% 30.08 in 10.0 mi North 17.3 mph - N/A   Clear
4:15 PM 73.4 °F 19.4 °F 13% 30.07 in 10.0 mi North 16.1 mph 20.7 mph N/A   Clear
4:35 PM 73.4 °F 19.4 °F 13% 30.06 in 10.0 mi North 17.3 mph - N/A   Clear
4:55 PM 71.6 °F 19.4 °F 14% 30.05 in 10.0 mi North 16.1 mph - N/A   Clear
5:15 PM 71.6 °F 17.6 °F 13% 30.05 in 10.0 mi North 13.8 mph - N/A   Clear
5:35 PM 71.6 °F 19.4 °F 14% 30.04 in 10.0 mi North 11.5 mph - N/A   Clear
5:55 PM 69.8 °F 19.4 °F 15% 30.03 in 10.0 mi North 10.4 mph - N/A   Clear
6:15 PM 69.8 °F 19.4 °F 15% 30.03 in 10.0 mi NNE 13.8 mph - N/A   Clear
6:35 PM 68.0 °F 21.2 °F 17% 30.03 in 10.0 mi NNE 12.7 mph - N/A   Clear
6:55 PM 68.0 °F 23.0 °F 18% 30.02 in 10.0 mi NNE 10.4 mph - N/A   Clear
7:15 PM 66.2 °F 23.0 °F 19% 30.03 in 10.0 mi NE 8.1 mph - N/A   Clear
7:35 PM 64.4 °F 23.0 °F 21% 30.02 in 10.0 mi NE 9.2 mph - N/A   Clear
7:55 PM 64.4 °F 23.0 °F 21% 30.02 in 10.0 mi NE 6.9 mph - N/A   Clear
8:15 PM 64.4 °F 23.0 °F 21% 30.01 in 10.0 mi NNE 8.1 mph - N/A   Clear
8:35 PM 64.4 °F 23.0 °F 21% 30.01 in 10.0 mi NNE 9.2 mph - N/A   Clear
8:55 PM 64.4 °F 23.0 °F 21% 30.01 in 10.0 mi NNE 10.4 mph - N/A   Clear
9:15 PM 64.4 °F 24.8 °F 22% 30.02 in 10.0 mi North 6.9 mph - N/A   Clear
9:35 PM 64.4 °F 23.0 °F 21% 30.01 in 10.0 mi NNE 9.2 mph - N/A   Clear
9:55 PM 62.6 °F 24.8 °F 24% 30.02 in 10.0 mi North 3.5 mph - N/A   Clear
10:15 PM 62.6 °F 23.0 °F 22% 30.02 in 10.0 mi NNE 8.1 mph - N/A   Clear
10:35 PM 59.0 °F 24.8 °F 27% 30.02 in 10.0 mi NNW 5.8 mph - N/A   Clear
10:55 PM 59.0 °F 24.8 °F 27% 30.02 in 10.0 mi NNW 4.6 mph - N/A   Clear
11:15 PM 57.2 °F 26.6 °F 31% 30.01 in 10.0 mi North 3.5 mph - N/A   Clear
11:35 PM 57.2 °F 26.6 °F 31% 30.00 in 10.0 mi North 8.1 mph - N/A   Clear
11:55 PM 57.2 °F 26.6 °F 31% 29.99 in 10.0 mi North 5.8 mph - N/A   Clear